[[{"header":{"parameterUnit":"m.s-1","parameterCategory":2,"la1":30.2991,"la2":30.254,"lo1":-89.0895,"lo2":-89.0444,"dy":0.0017,"dx":0.0017,"nx":28,"ny":28,"refTime":"2025-09-04T21:00:00:Z","depth":"0","parameterNumber":2,"parameterNumberName":"U-component_of_CURRENTS"},"data":[0,0,0,0,0,0,0,0,0,0,0,0,0,0,0,0,0,0,0,0,0,0,0,0,0,0,0,0,0,0,0,0,0,0,0,0,0,0,0,0,0,0,0,0,0,0,0,0,0,0,0,0,0,0,0,0,0,0,0.348,0.348,0,0.3508,0.3508,0.3508,0.3499,0.3499,0.3498,0.3498,0.3544,0.3545,0.3547,0,0,0,0,0,0,0,0,0,0,0,0,0,0.3435,0.3435,0.348,0.348,0.3481,0.3508,0.3508,0.3508,0.3499,0.3499,0.3498,0.3498,0.3544,0.3545,0.3547,0,0,0,0,0,0,0,0,0,0,0,0,0,0.3453,0.3435,0.3479,0.3484,0.3485,0.3508,0.3508,0.3508,0.3499,0.3499,0.3498,0.3498,0.3543,0.3545,0.3547,0.3563,0,0,0.3553,0.3554,0,0,0,0,0,0,0,0,0.3452,0.3454,0.3482,0.3484,0.3485,0.3504,0.351,0.3529,0.3499,0.3488,0.3498,0.3498,0.3536,0.3539,0.3537,0.3566,0.3568,0.3553,0.3554,0.3555,0.3556,0,0,0,0,0,0,0,0.345,0.3453,0.3486,0.3483,0.3485,0.3491,0.3492,0.3513,0.3509,0.3489,0.3489,0.3501,0.3536,0.3535,0.3538,0.3568,0.3553,0.3555,0.3556,0.3557,0.3722,0.3725,0,0,0,0,0,0,0.3457,0.3451,0.3485,0.3487,0.3473,0.3492,0.3494,0.3494,0.3508,0.3512,0.3501,0.3501,0.3531,0.3535,0.3539,0.3634,0.3555,0.3557,0.3558,0.3719,0.3723,0.3726,0,0,0,0,0,0,0.3455,0.3459,0.3484,0.3475,0.3479,0.3494,0.3494,0.3495,0.3497,0.3519,0.3521,0.3503,0.3531,0.3537,0.3582,0.3633,0.3558,0.356,0.3715,0.372,0.3724,0.3775,0,0,0,0,0,0,0.3454,0.3458,0.3447,0.3475,0.348,0.3512,0.3495,0.3496,0.3507,0.3506,0.3522,0.3525,0.3531,0.3579,0.3584,0.3634,0.3562,0.3711,0.3717,0.3723,0.377,0.3781,0.3791,0,0,0,0,0,0.3452,0.346,0.3446,0.345,0.3468,0.3514,0.3517,0.3523,0.3507,0.3519,0.3537,0.3525,0.3621,0.3583,0.3588,0.364,0.3708,0.3716,0.3723,0.3765,0.3779,0.3791,0,0,0,0,0,0,0.3437,0.3461,0.3446,0.3459,0.3484,0.3514,0.3532,0.3525,0.3544,0.3549,0.355,0.3556,0.3631,0.3627,0.3584,0.3711,0.3669,0.3678,0.37,0.3713,0.3724,0.3687,0.3563,0,0,0,0,0,0.3427,0.3443,0.3462,0.3477,0.3491,0.3504,0.3517,0.3527,0.3555,0.3561,0.3576,0.361,0.3664,0.3678,0.3726,0.377,0.3784,0.3815,0.3826,0.3835,0.3813,0.3847,0.3857,0.375,0.375,0.3749,0,0,0.3438,0.3445,0.3459,0.3476,0.3496,0.3532,0.3512,0.3553,0.3583,0.3566,0.3616,0.3653,0.3691,0.3763,0.3795,0.376,0.3896,0.3844,0.3851,0.3824,0.3855,0.3865,0.3874,0.3754,0.3754,0.3753,0,0,0.348,0.3465,0.3495,0.3512,0.3544,0.3561,0.3573,0.3607,0.3621,0.3683,0.369,0.3736,0.3815,0.3835,0.3861,0.3953,0.3965,0.3994,0.3996,0.4031,0.4038,0.4045,0.4161,0.4177,0.3981,0.3981,0.3981,0,0.3483,0.3507,0.3514,0.3542,0.356,0.3576,0.3613,0.3641,0.3686,0.3704,0.3719,0.3822,0.385,0.3907,0.395,0.3973,0.402,0.3938,0.404,0.4046,0.4051,0.4168,0.4185,0.3985,0.3984,0.3984,0.3984,0,0.3545,0.3556,0.3585,0.3617,0.3641,0.3683,0.3719,0.3753,0.3782,0.3806,0.3882,0.3915,0.3958,0.4001,0.4006,0.4065,0.4103,0.406,0.3993,0.4064,0.4186,0.4203,0.3989,0.3988,0.3987,0.3986,0,0,0.3537,0.3615,0.3608,0.3627,0.3675,0.3701,0.3771,0.3822,0.3854,0.3913,0.3958,0.404,0.4028,0.4053,0.4058,0.4081,0.4198,0.4085,0.4085,0.4178,0.4347,0.4287,0.43,0.4168,0.4169,0.417,0.4446,0,0.3566,0.3632,0.3658,0.3713,0.3748,0.3779,0.383,0.3878,0.3936,0.3992,0.4021,0.4084,0.4056,0.4084,0.4099,0.4179,0.4231,0.4132,0.4282,0.4288,0.4203,0.4311,0.4106,0.4323,0.4462,0.4465,0.4467,0,0.3579,0.3618,0.3689,0.3743,0.3757,0.3794,0.3855,0.3906,0.3988,0.4035,0.4076,0.4111,0.4169,0.4132,0.426,0.4203,0.4273,0.4328,0.4339,0.4255,0.4254,0.426,0.4347,0.4203,0.4492,0.449,0.4488,0,0.3547,0.3614,0.3669,0.3689,0.3774,0.3799,0.3837,0.3913,0.3953,0.4056,0.4116,0.417,0.4237,0.429,0.4396,0.4345,0.4561,0.4504,0.4527,0.4529,0.4364,0.4345,0.4289,0.4587,0.4587,0.4586,0.4585,0,0.3554,0.3584,0.3653,0.3683,0.3715,0.3773,0.382,0.3879,0.3962,0.4034,0.4109,0.4189,0.4275,0.44,0.4454,0.4563,0.4612,0.4552,0.4578,0.4389,0.437,0.424,0.4203,0.4596,0.4594,0.4592,0.459,0,0.3539,0.3593,0.3636,0.3701,0.3713,0.3731,0.3794,0.3836,0.393,0.4036,0.4077,0.4247,0.4424,0.4526,0.4689,0.4661,0.4625,0.4781,0.4597,0.4591,0.4398,0.4374,0.4242,0.4124,0.4844,0.4844,0.4844,0,0.3573,0.3592,0.3623,0.3636,0.3669,0.37,0.3729,0.3807,0.3867,0.4073,0.4134,0.4348,0.4471,0.4702,0.4717,0.4825,0.4676,0.4691,0.4502,0.4371,0.4366,0.4198,0.4095,0.4375,0.4371,0.4368,0.4366,0,0.3609,0.3592,0.3617,0.3637,0.3656,0.3666,0.3722,0.3753,0.3885,0.3986,0.4164,0.4281,0.4502,0.4518,0.4648,0.4663,0.4424,0.4625,0.4507,0.4004,0.3798,0.3701,0.4289,0.4337,0.434,0.4342,0.4343,0.4344,0.3613,0.3608,0.3622,0.3628,0.3646,0.3649,0.3637,0.371,0.3785,0.3907,0.41,0.419,0.43,0.443,0.442,0.4235,0.4259,0.4084,0.4093,0.3954,0.3707,0.4265,0.4301,0.4303,0.4305,0.4307,0.4309,0,0.3615,0.3611,0.3626,0.3619,0.3618,0.3631,0.3648,0.3612,0.3664,0.3776,0.389,0.393,0.3949,0.3975,0.388,0.3711,0.3517,0.3615,0.3309,0.3255,0.3773,0.361,0.3469,0.3469,0.3469,0.3469,0.347,0.347,0.3625,0.3623,0.3613,0.3599,0.3592,0.3525,0.3506,0.3455,0.3465,0.3421,0.3394,0.346,0.3579,0.3613,0.341,0.331,0.3036,0.291,0.2944,0.3287,0.3328,0.3368,0.3199,0.2975,0.2974,0.2222,0.2217,0.2213]},{"header":{"parameterUnit":"m.s-1","parameterCategory":2,"la1":30.2991,"la2":30.254,"lo1":-89.0895,"lo2":-89.0444,"dy":0.0017,"dx":0.0017,"nx":28,"ny":28,"refTime":"2025-09-04T21:00:00:Z","depth":"0","parameterNumber":3,"parameterNumberName":"V-component_of_CURRENTS"},"data":[0,0,0,0,0,0,0,0,0,0,0,0,0,0,0,0,0,0,0,0,0,0,0,0,0,0,0,0,0,0,0,0,0,0,0,0,0,0,0,0,0,0,0,0,0,0,0,0,0,0,0,0,0,0,0,0,0,0,-0.0013,-0.0013,0,-0.0032,-0.0032,-0.0033,-0.0041,-0.004,-0.004,-0.004,-0.0156,-0.016,-0.0163,0,0,0,0,0,0,0,0,0,0,0,0,0,-0.0008,-0.0008,-0.0013,-0.0013,-0.0013,-0.0032,-0.0032,-0.0033,-0.0041,-0.004,-0.004,-0.004,-0.0155,-0.0159,-0.0163,0,0,0,0,0,0,0,0,0,0,0,0,0,-0.0018,-0.0008,-0.0013,-0.0019,-0.0019,-0.0032,-0.0032,-0.0033,-0.0041,-0.004,-0.004,-0.004,-0.0154,-0.0159,-0.0164,-0.0197,0,0,-0.0178,-0.018,0,0,0,0,0,0,0,0,-0.0017,-0.0018,-0.0018,-0.0018,-0.0019,-0.0033,-0.0073,-0.0092,-0.0041,-0.0033,-0.004,-0.004,-0.0124,-0.0131,-0.0135,-0.0202,-0.0207,-0.0179,-0.0182,-0.0184,-0.0185,0,0,0,0,0,0,0,-0.0016,-0.0017,-0.0021,-0.0018,-0.0019,-0.0029,-0.003,-0.0077,-0.0082,-0.0034,-0.0034,-0.0035,-0.0125,-0.013,-0.0138,-0.0209,-0.0179,-0.0183,-0.0186,-0.0188,-0.0362,-0.0364,0,0,0,0,0,0,-0.0011,-0.0016,-0.002,-0.0022,-0.0017,-0.0029,-0.003,-0.0029,-0.0079,-0.0086,-0.0035,-0.0036,-0.0122,-0.0132,-0.0142,-0.0195,-0.0184,-0.0188,-0.0191,-0.036,-0.0362,-0.0364,0,0,0,0,0,0,-0.0011,-0.0011,-0.002,-0.0019,-0.0021,-0.0029,-0.0028,-0.003,-0.0033,-0.0079,-0.0087,-0.0036,-0.0122,-0.0135,-0.0196,-0.02,-0.019,-0.0195,-0.0358,-0.0361,-0.0363,-0.0296,0,0,0,0,0,0,-0.0011,-0.0011,-0.0004,-0.0018,-0.002,-0.0025,-0.0028,-0.003,-0.0033,-0.0034,-0.0083,-0.0093,-0.0123,-0.0188,-0.0201,-0.0206,-0.0198,-0.0356,-0.0359,-0.0363,-0.0296,-0.0296,-0.0296,0,0,0,0,0,-0.001,-0.0003,-0.0004,-0.0004,-0.0012,-0.0025,-0.0027,-0.0033,-0.0033,-0.0035,-0.0079,-0.0091,-0.0218,-0.0194,-0.0207,-0.0214,-0.0354,-0.0358,-0.0362,-0.0296,-0.0296,-0.0296,0,0,0,0,0,0,0.0005,-0.0003,-0.0005,0.0001,-0.001,-0.0026,-0.0025,-0.0031,-0.0064,-0.0067,-0.0111,-0.0126,-0.018,-0.0219,-0.019,-0.0281,-0.029,-0.0297,-0.0235,-0.0235,-0.0235,-0.0177,-0.0202,0,0,0,0,0,0.0011,0.001,0.0001,0.0003,0.0002,-0.0011,-0.0015,-0.0021,-0.0051,-0.0063,-0.0104,-0.0158,-0.0208,-0.0236,-0.0288,-0.0336,-0.0319,-0.0355,-0.0355,-0.0354,-0.0321,-0.031,-0.0304,-0.0377,-0.0377,-0.0377,0,0,0.0011,0.0011,0.0007,0.0006,-0.0002,-0.0002,-0.0013,-0.0019,-0.0023,-0.0075,-0.0106,-0.0159,-0.0224,-0.0274,-0.0303,-0.0304,-0.0327,-0.0359,-0.0357,-0.0324,-0.0313,-0.0305,-0.0298,-0.038,-0.0379,-0.0379,0,0,0.0016,0.0017,0.0022,0.0017,0.0013,0.0005,0.0005,-0.0016,-0.0025,-0.0067,-0.0106,-0.0154,-0.0241,-0.0273,-0.0304,-0.0339,-0.0327,-0.0374,-0.032,-0.0311,-0.0303,-0.0295,-0.0253,-0.0243,-0.0372,-0.0372,-0.0372,0,0.0024,0.0035,0.0019,0.0027,0.0034,0.0011,0.0023,0.0003,-0.0039,-0.0037,-0.0075,-0.0166,-0.0232,-0.0259,-0.0282,-0.0331,-0.0312,-0.0306,-0.0303,-0.0296,-0.0289,-0.0248,-0.0237,-0.0369,-0.0369,-0.037,-0.037,0,0.0039,0.0047,0.0049,0.0055,0.0052,0.0058,0.0038,0.0028,0.0005,-0.0008,-0.0043,-0.0127,-0.0169,-0.0215,-0.0263,-0.0259,-0.0255,-0.0298,-0.0283,-0.0276,-0.0236,-0.0225,-0.0365,-0.0366,-0.0367,-0.0368,0,0,0.0084,0.0065,0.0075,0.0092,0.0077,0.0089,0.0074,0.0081,0.0111,0.004,0.0074,-0.0044,-0.0066,-0.0103,-0.0167,-0.0172,-0.0131,-0.0211,-0.0212,-0.0132,-0.0073,-0.0078,-0.0067,-0.0167,-0.0165,-0.0164,-0.0057,0,0.0116,0.0145,0.0121,0.0153,0.0174,0.015,0.0154,0.015,0.0136,0.0154,0.0088,0.0082,-0.0031,-0.0035,-0.0067,-0.0109,-0.0102,-0.0153,-0.0124,-0.0122,-0.0096,-0.0055,-0.0073,0.0019,-0.0047,-0.0045,-0.0044,0,0.0164,0.0184,0.022,0.0239,0.0249,0.0262,0.0309,0.0304,0.0308,0.0301,0.0278,0.0235,0.0208,0.0115,0.0071,0.0047,-0.0002,-0.0037,-0.0035,-0.0046,-0.0107,-0.0007,0.0041,-0.0149,-0.0028,-0.0029,-0.0031,0,0.0249,0.0262,0.0304,0.031,0.0318,0.0345,0.0356,0.0365,0.0406,0.042,0.0475,0.0402,0.0427,0.0325,0.0221,0.0158,0.0207,0.0104,0.0066,0.0067,0.0056,0.0052,-0.0042,0.0102,0.0102,0.0102,0.0101,0,0.0312,0.0352,0.0357,0.039,0.0473,0.0439,0.0529,0.053,0.057,0.0674,0.0572,0.0667,0.0487,0.0475,0.032,0.0253,0.0283,0.0115,0.01,0.0075,0.0071,-0.0093,-0.0204,0.0106,0.0105,0.0104,0.0103,0,0.0398,0.0386,0.0457,0.0494,0.0514,0.0584,0.0652,0.0721,0.0745,0.0884,0.0911,0.0912,0.0906,0.0731,0.0624,0.0438,0.0238,0.0303,0.0303,0.0284,0.0011,-0.0094,-0.0154,-0.0225,0.0263,0.0263,0.0264,0,0.0439,0.0482,0.0564,0.0623,0.0648,0.0732,0.0798,0.0817,0.091,0.1063,0.1164,0.1207,0.128,0.111,0.0793,0.0559,0.0349,0.0371,0.0215,0.0031,-0.0098,-0.0184,-0.0248,0.0234,0.0235,0.0235,0.0235,0,0.0543,0.0577,0.0641,0.0763,0.0849,0.0947,0.105,0.1152,0.1226,0.1376,0.1595,0.1675,0.1517,0.1289,0.0934,0.0726,0.022,0.0367,0.0172,-0.0115,-0.0206,-0.0294,0.0147,0.0237,0.0237,0.0237,0.0236,0.0236,0.0637,0.0708,0.0794,0.091,0.1012,0.1157,0.1268,0.1419,0.1618,0.1873,0.192,0.2083,0.1679,0.1195,0.0898,0.0275,0.0272,0.0051,-0.0049,-0.0109,-0.0226,0.0238,0.0298,0.0298,0.0298,0.0298,0.0298,0,0.0736,0.0803,0.0927,0.1064,0.1198,0.1226,0.143,0.1574,0.1855,0.2102,0.2306,0.2176,0.169,0.1132,0.03,-0.0094,-0.0263,-0.0311,-0.0468,-0.0506,-0.0091,-0.0146,-0.0174,-0.0174,-0.0174,-0.0174,-0.0173,-0.0173,0.0786,0.0908,0.0963,0.1189,0.1296,0.1486,0.1613,0.1866,0.2068,0.2372,0.2462,0.2496,0.2012,0.0605,-0.032,-0.0516,-0.0807,-0.0851,-0.0965,-0.0743,-0.0719,-0.0696,-0.0776,-0.0935,-0.0936,-0.1356,-0.136,-0.1364]}],[{"header":{"parameterUnit":"m.s-1","parameterCategory":2,"la1":30.2991,"la2":30.254,"lo1":-89.0895,"lo2":-89.0444,"dy":0.0017,"dx":0.0017,"nx":28,"ny":28,"refTime":"2025-09-04T21:00:00:Z","depth":"2","parameterNumber":2,"parameterNumberName":"U-component_of_CURRENTS"},"data":[0,0,0,0,0,0,0,0,0,0,0,0,0,0,0,0,0,0,0,0,0,0,0,0,0,0,0,0,0,0,0,0,0,0,0,0,0,0,0,0,0,0,0,0,0,0,0,0,0,0,0,0,0,0,0,0,0,0,0.2486,0.2487,0,0.2574,0.2574,0.2575,0.2601,0.2601,0.2602,0.2602,0.252,0.2517,0.2515,0,0,0,0,0,0,0,0,0,0,0,0,0,0.2409,0.2409,0.2486,0.2487,0.2489,0.2574,0.2574,0.2575,0.2601,0.2601,0.2602,0.2602,0.252,0.2518,0.2515,0,0,0,0,0,0,0,0,0,0,0,0,0,0.2457,0.2409,0.2485,0.2517,0.2521,0.2573,0.2574,0.2575,0.2601,0.2601,0.2602,0.2602,0.2521,0.2518,0.2515,0.2488,0,0,0.2504,0.2502,0,0,0,0,0,0,0,0,0.2454,0.2459,0.2511,0.2515,0.252,0.2583,0.2518,0.254,0.2601,0.2564,0.2602,0.2602,0.2529,0.2525,0.2534,0.2484,0.2481,0.2504,0.2501,0.25,0.2499,0,0,0,0,0,0,0,0.2451,0.2456,0.2514,0.2513,0.2519,0.2551,0.2557,0.2522,0.2536,0.2567,0.2571,0.2591,0.2529,0.2537,0.2532,0.248,0.2504,0.2501,0.2498,0.2497,0.2506,0.2508,0,0,0,0,0,0,0.245,0.2453,0.2511,0.2517,0.2495,0.2553,0.2559,0.2557,0.254,0.2541,0.2591,0.2592,0.2543,0.2536,0.2529,0.2585,0.25,0.2497,0.2495,0.2504,0.2507,0.2509,0,0,0,0,0,0,0.2447,0.2453,0.2508,0.2494,0.2504,0.2554,0.2551,0.2559,0.2585,0.2561,0.2557,0.2613,0.2543,0.2534,0.254,0.2578,0.2495,0.2492,0.2501,0.2505,0.2508,0.2639,0,0,0,0,0,0,0.2444,0.2451,0.247,0.2493,0.2505,0.2544,0.2552,0.256,0.2599,0.2602,0.2577,0.257,0.2543,0.2546,0.2537,0.2572,0.2489,0.2498,0.2503,0.2507,0.2632,0.2647,0.2659,0,0,0,0,0,0.244,0.2465,0.247,0.2479,0.2521,0.2546,0.2554,0.2587,0.26,0.261,0.262,0.2572,0.2567,0.2545,0.2534,0.2569,0.2496,0.2501,0.2506,0.2626,0.2644,0.2659,0,0,0,0,0,0,0.2453,0.2472,0.2477,0.2508,0.2528,0.2553,0.2585,0.2597,0.2615,0.2628,0.2594,0.2588,0.2609,0.2571,0.2548,0.2587,0.2526,0.2529,0.262,0.2636,0.265,0.2698,0.2486,0,0,0,0,0,0.2461,0.2469,0.2495,0.2516,0.2533,0.2559,0.2583,0.2602,0.2617,0.2628,0.2616,0.2613,0.2619,0.2615,0.2603,0.2614,0.2627,0.2632,0.2646,0.2658,0.2691,0.2774,0.28,0.2526,0.2526,0.2526,0,0,0.2461,0.2483,0.2482,0.2518,0.2539,0.2558,0.2572,0.2613,0.2641,0.2611,0.2648,0.2653,0.2634,0.2665,0.267,0.2638,0.2738,0.2664,0.2675,0.2702,0.2783,0.281,0.2833,0.253,0.2529,0.2529,0,0,0.2461,0.2493,0.2496,0.2514,0.2561,0.2584,0.2597,0.2633,0.2669,0.2692,0.2707,0.2758,0.2715,0.276,0.2762,0.2842,0.2808,0.282,0.2926,0.3006,0.303,0.3051,0.3087,0.311,0.2827,0.2827,0.2827,0,0.246,0.2489,0.2503,0.2518,0.2569,0.2591,0.2631,0.2649,0.2687,0.2755,0.2709,0.2795,0.277,0.2876,0.2913,0.2876,0.2901,0.2863,0.3028,0.3049,0.3068,0.3099,0.3124,0.2834,0.2833,0.2833,0.2832,0,0.2459,0.2494,0.2507,0.2531,0.2574,0.2621,0.2662,0.2716,0.2757,0.2796,0.291,0.2914,0.2984,0.2978,0.2961,0.3109,0.3073,0.3036,0.299,0.3104,0.3128,0.3151,0.2844,0.2842,0.284,0.2838,0,0,0.2437,0.2495,0.2501,0.2546,0.2614,0.2649,0.2726,0.2837,0.2916,0.2953,0.3081,0.3126,0.3176,0.3188,0.32,0.3268,0.3412,0.3222,0.3223,0.3265,0.3574,0.3438,0.3448,0.341,0.3415,0.3419,0.3529,0,0.245,0.2491,0.2539,0.2608,0.2656,0.2743,0.2808,0.2906,0.2985,0.3092,0.3181,0.3263,0.3237,0.3292,0.3372,0.3414,0.3481,0.3384,0.345,0.3452,0.3325,0.3475,0.3201,0.3268,0.3551,0.3555,0.3558,0,0.244,0.2501,0.257,0.2701,0.2735,0.2789,0.298,0.3039,0.3195,0.3257,0.3398,0.3436,0.36,0.3515,0.3687,0.363,0.3628,0.3629,0.3633,0.3484,0.3361,0.3202,0.3298,0.3595,0.3592,0.359,0.3587,0,0.2441,0.2528,0.2609,0.2642,0.277,0.2879,0.2975,0.3124,0.3229,0.3394,0.3485,0.364,0.3745,0.38,0.381,0.3775,0.3939,0.3881,0.3755,0.3742,0.3512,0.3471,0.3989,0.3989,0.3989,0.3989,0.3988,0,0.2469,0.2539,0.262,0.2677,0.2808,0.2904,0.3086,0.3173,0.3359,0.345,0.3591,0.368,0.3826,0.3914,0.389,0.3904,0.4014,0.3821,0.379,0.3544,0.3506,0.3783,0.3758,0.3993,0.3992,0.3991,0.399,0,0.2482,0.2517,0.2602,0.2749,0.2807,0.2905,0.3148,0.3242,0.3422,0.3555,0.3618,0.3806,0.3896,0.3977,0.4058,0.401,0.4007,0.3957,0.3638,0.3568,0.3738,0.3718,0.3888,0.3884,0.3882,0.3879,0.3878,0,0.2505,0.2542,0.2626,0.2665,0.2761,0.2935,0.3027,0.3242,0.3328,0.3564,0.359,0.3787,0.3812,0.3939,0.3892,0.3875,0.3934,0.3602,0.3491,0.379,0.3742,0.3726,0.3711,0.3232,0.3225,0.3219,0.3214,0,0.2575,0.2563,0.2621,0.2666,0.2757,0.2861,0.302,0.3092,0.3271,0.3396,0.3489,0.3557,0.3683,0.3569,0.3587,0.3519,0.3594,0.3482,0.3929,0.3283,0.3175,0.3126,0.3132,0.3163,0.3168,0.3172,0.3174,0.3176,0.2602,0.2596,0.2596,0.2647,0.2712,0.2723,0.2768,0.2888,0.2984,0.3053,0.3209,0.3225,0.3305,0.32,0.309,0.3054,0.3287,0.3158,0.3174,0.3198,0.3086,0.2978,0.2906,0.2909,0.2912,0.2915,0.2917,0,0.2554,0.2569,0.2585,0.2582,0.2562,0.2646,0.2687,0.2661,0.2654,0.276,0.2823,0.2627,0.2578,0.2666,0.2531,0.2533,0.2501,0.2436,0.238,0.2434,0.2482,0.2331,0.1952,0.1949,0.1945,0.1942,0,0,0.2535,0.2488,0.2444,0.2394,0.241,0.2326,0.2287,0.2271,0.2312,0.2244,0.2265,0.2447,0.2595,0.2231,0.2196,0.2055,0.2221,0.1976,0.2761,0.275,0.2793,0.292,0.2752,0,0,0,0,0]},{"header":{"parameterUnit":"m.s-1","parameterCategory":2,"la1":30.2991,"la2":30.254,"lo1":-89.0895,"lo2":-89.0444,"dy":0.0017,"dx":0.0017,"nx":28,"ny":28,"refTime":"2025-09-04T21:00:00:Z","depth":"2","parameterNumber":3,"parameterNumberName":"V-component_of_CURRENTS"},"data":[0,0,0,0,0,0,0,0,0,0,0,0,0,0,0,0,0,0,0,0,0,0,0,0,0,0,0,0,0,0,0,0,0,0,0,0,0,0,0,0,0,0,0,0,0,0,0,0,0,0,0,0,0,0,0,0,0,0,0.0091,0.0091,0,0.0039,0.0038,0.0037,-0.0006,-0.0006,-0.0006,-0.0007,-0.0056,-0.0057,-0.0058,0,0,0,0,0,0,0,0,0,0,0,0,0,0.011,0.011,0.0091,0.0091,0.009,0.0039,0.0038,0.0037,-0.0006,-0.0006,-0.0007,-0.0007,-0.0056,-0.0057,-0.0058,0,0,0,0,0,0,0,0,0,0,0,0,0,0.0084,0.011,0.0091,0.0063,0.006,0.0039,0.0038,0.0037,-0.0005,-0.0006,-0.0007,-0.0007,-0.0056,-0.0057,-0.0058,-0.0054,0,0,-0.0063,-0.0063,0,0,0,0,0,0,0,0,0.0086,0.0083,0.0068,0.0065,0.0061,0.0023,0.0026,0.0007,-0.0005,0.0019,-0.0007,-0.0008,-0.0029,-0.0033,-0.0041,-0.0056,-0.0058,-0.0063,-0.0064,-0.0064,-0.0065,0,0,0,0,0,0,0,0.0087,0.0085,0.007,0.0067,0.0063,0.0037,0.0033,0.0022,-0.0001,0.0017,0.0014,0.0008,-0.0031,-0.004,-0.0043,-0.0059,-0.0063,-0.0064,-0.0065,-0.0065,-0.0078,-0.0078,0,0,0,0,0,0,0.0097,0.0087,0.0072,0.0069,0.0072,0.0037,0.0033,0.0035,-0.0001,-0.0007,0.0009,0.0006,-0.0037,-0.0041,-0.0045,-0.0041,-0.0064,-0.0065,-0.0066,-0.0079,-0.0078,-0.0078,0,0,0,0,0,0,0.0098,0.0097,0.0074,0.0076,0.0071,0.0038,0.0041,0.0035,0.0023,-0.0007,-0.0013,0.0004,-0.0038,-0.0043,-0.0066,-0.0043,-0.0066,-0.0067,-0.0079,-0.0079,-0.0078,-0.0033,0,0,0,0,0,0,0.0099,0.0098,0.0095,0.0077,0.0072,0.0074,0.0042,0.0034,0.0021,0.0017,-0.0013,-0.0019,-0.0039,-0.0063,-0.0067,-0.0046,-0.0068,-0.008,-0.0079,-0.0078,-0.0036,-0.0031,-0.0028,0,0,0,0,0,0.01,0.011,0.0096,0.0093,0.0073,0.0075,0.007,0.0043,0.0022,0.0028,-0.001,-0.0018,-0.0059,-0.0065,-0.0069,-0.0047,-0.008,-0.0079,-0.0078,-0.0037,-0.0032,-0.0028,0,0,0,0,0,0,0.0117,0.0106,0.009,0.0095,0.0088,0.0068,0.0067,0.0047,0.0022,0.001,-0.0021,-0.0029,-0.0033,-0.0051,-0.0056,-0.0048,-0.0067,-0.0066,-0.0034,-0.0029,-0.0026,-0.0044,-0.007,0,0,0,0,0,0.0119,0.0124,0.0111,0.0115,0.0114,0.0089,0.0082,0.0065,0.0043,0.0031,0.0008,-0.0018,-0.003,-0.004,-0.0051,-0.0056,-0.0078,-0.0042,-0.0038,-0.0034,-0.0052,-0.0093,-0.0095,-0.0074,-0.0074,-0.0074,0,0,0.013,0.0121,0.0125,0.0118,0.0109,0.0129,0.0084,0.0081,0.0092,0.003,0.0032,-0.0002,-0.0027,-0.003,-0.0033,-0.0045,-0.004,-0.0033,-0.003,-0.005,-0.0092,-0.0094,-0.0096,-0.0073,-0.0073,-0.0074,0,0,0.0169,0.0146,0.0172,0.0173,0.0161,0.0148,0.0151,0.0132,0.0117,0.0114,0.0069,0.0031,0.0032,-0.0004,-0.0015,0.0002,-0.0014,0.0015,0.0014,-0.0024,-0.0027,-0.003,-0.001,-0.0011,0.0012,0.0012,0.0012,0,0.018,0.0205,0.0179,0.0208,0.0205,0.0166,0.0193,0.0186,0.0158,0.0141,0.0129,0.0061,0.0046,0.0005,0.0011,0.0011,-0.0001,0.0,-0.002,-0.0024,-0.0028,-0.0007,-0.001,0.0014,0.0014,0.0014,0.0014,0,0.0243,0.0261,0.0278,0.0299,0.0296,0.0308,0.0294,0.0288,0.0262,0.0241,0.0191,0.0127,0.0076,0.0078,0.0053,0.0014,0.0022,-0.0006,-0.0034,-0.0027,-0.0005,-0.0008,0.0018,0.0017,0.0016,0.0016,0,0,0.0273,0.0314,0.0321,0.0336,0.0335,0.0339,0.0359,0.0351,0.035,0.03,0.0275,0.0217,0.0138,0.0114,0.0051,0.0008,-0.0,-0.0011,-0.0014,0.0007,-0.0048,-0.0079,-0.0085,-0.004,-0.0042,-0.0043,-0.0004,0,0.0326,0.0396,0.0392,0.0444,0.0471,0.0438,0.0455,0.0437,0.0412,0.0387,0.0284,0.024,0.0167,0.0118,0.0059,0.0033,-0.0016,-0.0006,-0.0058,-0.0059,-0.009,-0.0094,-0.0074,-0.0044,-0.0007,-0.0008,-0.0008,0,0.0387,0.0417,0.0481,0.0498,0.0503,0.0513,0.0497,0.0499,0.0459,0.0444,0.035,0.028,0.0199,0.0126,0.0037,0.0048,-0.0014,-0.0049,-0.0049,-0.0108,-0.0099,-0.0055,-0.0051,-0.0014,-0.0014,-0.0013,-0.0013,0,0.041,0.0474,0.0516,0.0529,0.0551,0.0541,0.0518,0.0494,0.0521,0.0438,0.0477,0.0324,0.0305,0.017,0.0092,0.0066,0.0014,-0.002,-0.0118,-0.0116,-0.0129,-0.0128,-0.0131,-0.0131,-0.0131,-0.0131,-0.0131,0,0.0452,0.0483,0.0524,0.0544,0.058,0.0542,0.0555,0.0539,0.0529,0.0596,0.0467,0.0499,0.0314,0.0266,0.013,0.0022,0.0042,-0.0125,-0.0129,-0.0106,-0.0104,-0.0117,-0.0116,-0.013,-0.013,-0.013,-0.0131,0,0.0466,0.0501,0.0562,0.0588,0.0597,0.0597,0.0617,0.0646,0.0628,0.0714,0.0702,0.0677,0.0609,0.0429,0.0273,0.013,-0.0014,-0.008,-0.0014,-0.0016,-0.0122,-0.0119,-0.0168,-0.0169,-0.017,-0.0171,-0.0172,0,0.0474,0.0512,0.0606,0.0655,0.0658,0.0666,0.0702,0.0689,0.0757,0.0847,0.0924,0.0873,0.0862,0.0624,0.0329,0.007,0.001,-0.0086,-0.0176,-0.0137,-0.0135,-0.013,-0.0126,-0.0132,-0.0132,-0.0132,-0.0133,0,0.0487,0.0535,0.0595,0.071,0.0761,0.0845,0.0884,0.0976,0.1012,0.1114,0.1237,0.1215,0.0984,0.0716,0.033,0.0141,-0.0052,-0.0102,-0.0076,-0.0146,-0.0107,-0.0104,-0.01,-0.0135,-0.0135,-0.0134,-0.0134,-0.0134,0.0491,0.0557,0.0663,0.0767,0.0859,0.0995,0.1065,0.118,0.1313,0.1457,0.1436,0.1417,0.1103,0.06,0.0279,-0.0063,-0.0062,-0.0192,-0.0189,-0.0186,-0.021,-0.0178,-0.0219,-0.0219,-0.0219,-0.0219,-0.022,0,0.0495,0.0574,0.0706,0.0844,0.0972,0.1015,0.1193,0.1291,0.1478,0.1585,0.1638,0.1333,0.1015,0.066,0.0155,-0.0158,-0.0186,-0.0255,-0.0217,-0.0213,-0.0209,-0.0234,-0.0249,-0.025,-0.0251,-0.0251,0,0,0.0488,0.0601,0.0706,0.091,0.1021,0.1192,0.1307,0.149,0.1602,0.1682,0.166,0.1552,0.113,0.0756,0.0331,0.0054,-0.0008,-0.0009,0.0045,0.0144,0.0152,-0.0146,-0.0177,0,0,0,0,0]}],[{"header":{"parameterUnit":"m.s-1","parameterCategory":2,"la1":30.2991,"la2":30.254,"lo1":-89.0895,"lo2":-89.0444,"dy":0.0017,"dx":0.0017,"nx":28,"ny":28,"refTime":"2025-09-04T21:00:00:Z","depth":"4","parameterNumber":2,"parameterNumberName":"U-component_of_CURRENTS"},"data":[0,0,0,0,0,0,0,0,0,0,0,0,0,0,0,0,0,0,0,0,0,0,0,0,0,0,0,0,0,0,0,0,0,0,0,0,0,0,0,0,0,0,0,0,0,0,0,0,0,0,0,0,0,0,0,0,0,0,0.1295,0.1296,0,0.1366,0.1367,0.1368,0.1425,0.1426,0.1426,0.1427,0.1476,0.1476,0.1477,0,0,0,0,0,0,0,0,0,0,0,0,0,0.1169,0.1171,0.1295,0.1296,0.1297,0.1366,0.1367,0.1368,0.1425,0.1426,0.1426,0.1427,0.1476,0.1476,0.1477,0,0,0,0,0,0,0,0,0,0,0,0,0,0.1229,0.1172,0.1295,0.1334,0.1339,0.1366,0.1367,0.1368,0.1425,0.1426,0.1427,0.1427,0.1475,0.1476,0.1477,0.1464,0,0,0.1481,0.1481,0,0,0,0,0,0,0,0,0.1226,0.1234,0.1327,0.1332,0.1336,0.1388,0.1341,0.14,0.1424,0.1391,0.1427,0.1428,0.1444,0.1448,0.1458,0.1467,0.1469,0.1481,0.1481,0.1482,0.1482,0,0,0,0,0,0,0,0.1222,0.1231,0.1322,0.1328,0.1334,0.1335,0.1345,0.1352,0.141,0.1394,0.1399,0.1407,0.1447,0.1457,0.146,0.147,0.1481,0.1482,0.1482,0.1483,0.1528,0.1529,0,0,0,0,0,0,0.1216,0.1227,0.132,0.1325,0.1283,0.1337,0.1348,0.137,0.1411,0.1418,0.1407,0.141,0.1455,0.1459,0.1462,0.1511,0.1482,0.1483,0.1483,0.1528,0.1529,0.1529,0,0,0,0,0,0,0.1213,0.1224,0.1317,0.1277,0.1289,0.1338,0.1363,0.1371,0.1411,0.1421,0.1428,0.1441,0.1456,0.146,0.1487,0.1511,0.1483,0.1484,0.1527,0.1528,0.1529,0.1569,0,0,0,0,0,0,0.1209,0.1223,0.125,0.1277,0.1291,0.1339,0.1362,0.1372,0.1413,0.1419,0.1452,0.1456,0.1457,0.1485,0.1488,0.1512,0.1485,0.1526,0.1528,0.1529,0.1567,0.1572,0.1575,0,0,0,0,0,0.1205,0.1225,0.1252,0.1263,0.1324,0.1339,0.1347,0.1383,0.1414,0.1425,0.1454,0.1457,0.1494,0.1486,0.1489,0.1515,0.1526,0.1527,0.1529,0.1566,0.1571,0.1575,0,0,0,0,0,0,0.1184,0.1233,0.1263,0.13,0.1324,0.135,0.1371,0.1398,0.1431,0.145,0.1463,0.1468,0.15,0.1498,0.1489,0.1529,0.1511,0.1513,0.1538,0.1543,0.1547,0.1567,0.1486,0,0,0,0,0,0.1193,0.1222,0.1262,0.1291,0.131,0.135,0.1369,0.1394,0.142,0.1439,0.1462,0.1485,0.1502,0.1517,0.1525,0.1547,0.1573,0.1565,0.1569,0.1572,0.159,0.1641,0.1652,0.1534,0.1533,0.1533,0,0,0.1181,0.1223,0.1233,0.1288,0.1318,0.1341,0.1364,0.1398,0.1423,0.1436,0.1484,0.15,0.151,0.1535,0.155,0.1542,0.1621,0.1574,0.1577,0.1593,0.1644,0.1655,0.1666,0.1534,0.1534,0.1534,0,0,0.1167,0.1224,0.1242,0.1271,0.1326,0.1349,0.1365,0.1409,0.1441,0.148,0.1497,0.1535,0.1558,0.1575,0.1585,0.1617,0.1638,0.1614,0.1657,0.1706,0.1717,0.1726,0.1785,0.18,0.1619,0.1619,0.1619,0,0.1158,0.1201,0.1245,0.1277,0.1307,0.1356,0.138,0.1411,0.1457,0.1491,0.1501,0.1572,0.1582,0.1623,0.1638,0.1629,0.1662,0.1639,0.1713,0.1723,0.1733,0.179,0.1806,0.1621,0.1621,0.1621,0.1621,0,0.116,0.1201,0.1215,0.1279,0.1311,0.1338,0.139,0.1427,0.1481,0.1523,0.159,0.1613,0.1663,0.1665,0.1666,0.1732,0.1736,0.1711,0.1705,0.1748,0.1805,0.1821,0.1625,0.1624,0.1623,0.1623,0,0,0.1134,0.1199,0.1214,0.124,0.1323,0.1341,0.1396,0.146,0.1511,0.157,0.1643,0.1684,0.1728,0.1742,0.1749,0.1791,0.1889,0.1787,0.1789,0.1854,0.2015,0.1882,0.1886,0.1878,0.1881,0.1883,0.2033,0,0.1132,0.1168,0.122,0.126,0.1281,0.1353,0.1404,0.1473,0.1537,0.1614,0.1678,0.1748,0.1746,0.1787,0.1831,0.1879,0.193,0.1852,0.1958,0.1962,0.1844,0.1899,0.1892,0.2044,0.2048,0.205,0.2052,0,0.1132,0.1162,0.1193,0.126,0.1284,0.1321,0.1422,0.1477,0.1595,0.1655,0.1744,0.1802,0.1904,0.1881,0.2011,0.1964,0.2003,0.2028,0.2034,0.1908,0.1856,0.199,0.2081,0.2078,0.2076,0.2074,0.2073,0,0.1086,0.1147,0.117,0.1194,0.1279,0.1321,0.1384,0.1496,0.1568,0.1697,0.1772,0.1882,0.1971,0.2034,0.2114,0.2078,0.2242,0.2194,0.2112,0.2104,0.2163,0.2151,0.228,0.228,0.228,0.2279,0.2279,0,0.1056,0.108,0.1149,0.1164,0.1222,0.1301,0.1386,0.1463,0.1597,0.1702,0.1804,0.1891,0.2017,0.2122,0.2159,0.2198,0.2291,0.2141,0.2135,0.2176,0.2163,0.2175,0.2161,0.2285,0.2284,0.2283,0.2282,0,0.0988,0.1033,0.1069,0.116,0.1197,0.1246,0.1388,0.1447,0.1586,0.1723,0.1783,0.1951,0.209,0.2189,0.2313,0.2256,0.2298,0.2281,0.2356,0.2348,0.2119,0.2105,0.2208,0.2204,0.2201,0.2199,0.2197,0,0.0946,0.0948,0.1058,0.1099,0.1144,0.1228,0.1294,0.1432,0.1507,0.1744,0.1807,0.1996,0.2095,0.218,0.2266,0.2336,0.2297,0.2298,0.217,0.2129,0.2114,0.2104,0.2094,0.2192,0.2191,0.2191,0.219,0,0.087,0.0923,0.0975,0.105,0.1116,0.1182,0.1287,0.1331,0.1516,0.1654,0.1806,0.1893,0.204,0.2125,0.2197,0.2227,0.2281,0.2267,0.2271,0.2151,0.2111,0.2097,0.2091,0.218,0.2181,0.2182,0.2183,0,0.083,0.0849,0.0927,0.0987,0.107,0.1114,0.1179,0.1285,0.1382,0.1639,0.1688,0.1883,0.2042,0.2071,0.2137,0.2161,0.2115,0.202,0.2037,0.2049,0.192,0.1841,0.1841,0,0,0,0,0,0.0772,0.078,0.0846,0.0899,0.0985,0.1027,0.1168,0.1242,0.1408,0.1484,0.159,0.1724,0.1838,0.1921,0.1917,0.2041,0.2103,0.202,0.1996,0.2124,0.2136,0.1993,0,0,0,0,0,0,0.0721,0.0778,0.0812,0.0824,0.0839,0.0908,0.0992,0.1118,0.1172,0.1363,0.1442,0.1589,0.1726,0.1824,0.187,0.1896,0.184,0.2137,0.2132,0.2117,0.2128,0.2137,0.1995,0,0,0,0,0]},{"header":{"parameterUnit":"m.s-1","parameterCategory":2,"la1":30.2991,"la2":30.254,"lo1":-89.0895,"lo2":-89.0444,"dy":0.0017,"dx":0.0017,"nx":28,"ny":28,"refTime":"2025-09-04T21:00:00:Z","depth":"4","parameterNumber":3,"parameterNumberName":"V-component_of_CURRENTS"},"data":[0,0,0,0,0,0,0,0,0,0,0,0,0,0,0,0,0,0,0,0,0,0,0,0,0,0,0,0,0,0,0,0,0,0,0,0,0,0,0,0,0,0,0,0,0,0,0,0,0,0,0,0,0,0,0,0,0,0,0.0215,0.0214,0,0.0189,0.0189,0.0189,0.015,0.0149,0.0149,0.0148,0.0111,0.011,0.011,0,0,0,0,0,0,0,0,0,0,0,0,0,0.023,0.023,0.0215,0.0214,0.0214,0.0189,0.0189,0.0189,0.015,0.0149,0.0148,0.0148,0.0111,0.011,0.011,0,0,0,0,0,0,0,0,0,0,0,0,0,0.0216,0.023,0.0215,0.0192,0.0189,0.0189,0.0189,0.0189,0.015,0.0149,0.0148,0.0147,0.0111,0.011,0.011,0.0128,0,0,0.0108,0.0108,0,0,0,0,0,0,0,0,0.0217,0.0216,0.0195,0.0193,0.0191,0.0172,0.0181,0.0167,0.0151,0.0165,0.0148,0.0147,0.0131,0.0128,0.0126,0.0126,0.0124,0.0108,0.0108,0.0108,0.0107,0,0,0,0,0,0,0,0.0218,0.0217,0.0205,0.0195,0.0192,0.0183,0.018,0.0178,0.0154,0.0164,0.0161,0.0158,0.0129,0.0127,0.0125,0.0124,0.0108,0.0108,0.0107,0.0107,0.0136,0.0137,0,0,0,0,0,0,0.0222,0.0218,0.0206,0.0204,0.0202,0.0183,0.018,0.0179,0.0154,0.0149,0.0159,0.0157,0.0128,0.0126,0.0124,0.015,0.0108,0.0107,0.0107,0.0135,0.0136,0.0138,0,0,0,0,0,0,0.0223,0.0222,0.0207,0.021,0.0207,0.0184,0.0183,0.0179,0.0175,0.0151,0.0146,0.0159,0.0127,0.0124,0.0127,0.0148,0.0107,0.0106,0.0134,0.0135,0.0137,0.0198,0,0,0,0,0,0,0.0223,0.0222,0.0222,0.021,0.0207,0.0217,0.0184,0.0179,0.0175,0.0171,0.0149,0.0145,0.0126,0.0128,0.0126,0.0146,0.0106,0.0132,0.0135,0.0136,0.0195,0.0201,0.0207,0,0,0,0,0,0.0224,0.0238,0.0222,0.022,0.0208,0.0218,0.0217,0.0196,0.0176,0.0186,0.0166,0.0145,0.0139,0.0128,0.0126,0.0147,0.0131,0.0134,0.0136,0.0192,0.02,0.0207,0,0,0,0,0,0,0.025,0.0235,0.0217,0.0226,0.0223,0.0212,0.0218,0.0202,0.0195,0.0188,0.0159,0.0155,0.0166,0.015,0.0138,0.0161,0.0132,0.0134,0.0175,0.0183,0.0189,0.0189,0.0106,0,0,0,0,0,0.0254,0.0258,0.0244,0.0252,0.0252,0.0234,0.0233,0.0222,0.0213,0.0208,0.0193,0.0179,0.0176,0.0173,0.0169,0.0183,0.0135,0.0195,0.0201,0.0206,0.0206,0.0152,0.0153,0.0146,0.0146,0.0146,0,0,0.0269,0.0259,0.0262,0.0258,0.0252,0.0265,0.0232,0.024,0.0251,0.0207,0.0219,0.0203,0.0185,0.02,0.0203,0.0187,0.0183,0.021,0.0214,0.0211,0.0154,0.0155,0.0155,0.0147,0.0147,0.0147,0,0,0.0307,0.029,0.0306,0.0307,0.0301,0.0292,0.0297,0.0289,0.0284,0.0296,0.0265,0.0258,0.026,0.0246,0.024,0.028,0.022,0.0283,0.0314,0.0263,0.0262,0.0261,0.0194,0.0186,0.0285,0.0285,0.0285,0,0.0317,0.0336,0.0316,0.0332,0.0337,0.0308,0.0332,0.033,0.0323,0.0323,0.031,0.0295,0.0282,0.0284,0.03,0.0294,0.0246,0.0286,0.0269,0.0267,0.0265,0.0196,0.0187,0.0288,0.0288,0.0288,0.0287,0,0.0365,0.038,0.0395,0.0399,0.0405,0.0424,0.0414,0.0421,0.0408,0.0397,0.0398,0.0372,0.0359,0.0359,0.0344,0.0331,0.0295,0.0283,0.0246,0.0269,0.0195,0.0185,0.0293,0.0292,0.0291,0.029,0,0,0.038,0.0419,0.0423,0.044,0.0441,0.0453,0.0474,0.0482,0.0487,0.0476,0.0476,0.0471,0.0439,0.0429,0.0401,0.036,0.0306,0.0321,0.0316,0.0248,0.0172,0.0164,0.0151,0.0285,0.0284,0.0283,0.0123,0,0.0417,0.0472,0.0478,0.0526,0.055,0.0537,0.0562,0.0562,0.0548,0.0541,0.0504,0.0497,0.047,0.046,0.0417,0.0335,0.0283,0.035,0.0166,0.016,0.0145,0.0141,0.0279,0.0115,0.0113,0.0111,0.0109,0,0.045,0.0484,0.0545,0.0589,0.0598,0.0626,0.0641,0.0658,0.0639,0.0626,0.0596,0.0554,0.0503,0.0475,0.0332,0.0373,0.0282,0.021,0.0202,0.0166,0.0133,0.0089,0.0089,0.0091,0.0092,0.0094,0.0095,0,0.0463,0.0524,0.0578,0.0592,0.0638,0.0668,0.0691,0.0688,0.07,0.0671,0.0661,0.0587,0.0545,0.0429,0.0292,0.0304,0.0116,0.0111,0.001,0.0007,0.0034,0.0036,0.0002,0.0002,0.0003,0.0003,0.0003,0,0.0489,0.053,0.0596,0.0625,0.0686,0.0705,0.0755,0.0758,0.0759,0.0766,0.0706,0.0675,0.0531,0.0411,0.0286,0.0112,0.0104,0.0007,-0.0032,0.0063,0.0071,0.0025,0.0029,-0.0003,-0.0002,-0.0001,0.0,0,0.0492,0.0536,0.0597,0.0669,0.0697,0.0738,0.0807,0.0833,0.0829,0.083,0.0823,0.0722,0.0569,0.0409,0.0201,0.0104,-0.006,-0.0121,-0.0023,-0.0053,-0.0137,-0.0127,-0.0254,-0.0255,-0.0256,-0.0258,-0.0258,0,0.0498,0.0535,0.0626,0.0666,0.0707,0.0778,0.0829,0.0864,0.0886,0.0854,0.0849,0.0714,0.063,0.0327,0.0159,-0.0097,-0.0121,-0.0215,-0.0157,-0.0137,-0.0163,-0.015,-0.0139,-0.0261,-0.0261,-0.0261,-0.0262,0,0.0506,0.0542,0.0594,0.0684,0.0752,0.0822,0.0896,0.0918,0.0945,0.0938,0.0862,0.0717,0.0537,0.032,0.012,-0.0057,-0.0155,-0.0229,-0.0227,-0.0173,-0.0147,-0.0168,-0.0156,-0.0266,-0.0266,-0.0265,-0.0265,0,0.051,0.0538,0.0617,0.069,0.0772,0.0845,0.089,0.0924,0.0949,0.0923,0.0887,0.0712,0.0606,0.0337,0.0152,-0.0022,-0.0057,-0.0102,-0.0107,-0.0105,-0.0,0.0058,-0.0039,0,0,0,0,0,0.0514,0.0552,0.0618,0.0706,0.0787,0.0843,0.0921,0.0957,0.0987,0.0941,0.0921,0.076,0.0487,0.0364,0.0188,0.012,-0.0095,-0.0092,-0.015,-0.0292,-0.0286,-0.0188,0,0,0,0,0,0,0.0514,0.0582,0.0614,0.0708,0.0768,0.0866,0.0921,0.0944,0.0923,0.0919,0.0777,0.0713,0.0447,0.0586,0.0182,0.0128,0.0067,-0.0217,-0.0221,-0.0295,-0.029,-0.0286,-0.0183,0,0,0,0,0]}]]